GEFSNGP_con_probscp_270.txt.gz
Probability
0 0 0 0 0 0 1 2 3 3 2 1 4 5 5 8 13 20 25 27 26 26 26 27 24 22 25 31 35 33 29 24 20 17 16 18 18 17 17 19 19 17 16 17
0 0 0 0 0 1 2 3 3 2 1 3 6 9 10 11 14 20 27 30 32 32 33 32 30 26 27 31 34 34 30 24 18 17 18 17 16 15 16 18 18 18 18 18
0 0 0 1 1 1 3 4 4 2 3 6 11 15 16 15 16 22 29 35 37 37 38 36 33 31 29 30 31 32 30 25 20 19 19 18 15 14 16 18 18 18 18 18
0 1 1 1 0 1 3 4 5 5 8 13 17 20 21 19 19 23 30 34 36 37 36 33 32 31 30 28 26 27 27 26 25 23 22 21 18 18 19 19 18 17 17 17
1 1 1 0 0 1 3 4 6 10 13 16 20 24 24 22 21 23 26 28 30 32 33 31 30 31 30 26 23 22 24 26 28 27 26 27 25 22 20 18 16 15 14 15
0 0 0 0 0 1 2 4 7 11 13 15 18 23 23 20 20 22 22 22 24 27 30 29 28 30 30 26 22 20 22 25 27 27 27 29 28 24 20 18 16 14 13 13
0 0 0 0 0 0 1 2 5 8 10 12 14 17 19 19 19 21 21 20 21 24 26 26 28 30 30 27 24 22 24 25 24 23 23 24 26 25 22 20 18 16 13 13
0 0 0 1 1 0 1 2 5 9 10 11 12 15 16 18 18 19 21 21 21 22 23 26 29 32 31 29 27 27 29 27 23 20 19 19 21 23 23 22 20 17 15 13
1 1 1 2 2 2 2 4 8 12 12 12 13 14 13 13 14 17 21 22 21 23 25 25 27 31 32 31 32 32 31 27 22 20 18 16 17 19 21 21 20 18 15 14
3 3 3 3 4 4 4 6 8 11 12 13 14 14 12 12 13 16 21 23 24 26 26 24 25 28 31 33 35 35 31 26 23 21 19 16 14 15 16 18 19 19 17 16
6 5 5 5 6 7 8 9 9 10 11 13 16 17 17 17 18 21 24 27 29 30 28 27 28 30 32 34 36 35 31 26 23 23 21 18 15 14 14 14 15 16 16 18
6 6 7 8 9 10 10 12 13 13 12 13 16 18 19 20 23 26 29 33 35 33 32 32 32 33 34 34 34 33 29 26 24 22 22 21 18 16 13 10 9 9 10 12
5 7 9 11 12 12 12 13 15 14 13 14 16 18 18 20 25 30 34 38 38 35 34 34 34 34 35 36 35 31 28 26 25 23 21 20 19 17 15 11 7 4 4 4
5 7 11 13 13 14 13 14 14 13 13 15 16 17 17 19 24 31 37 40 40 36 35 36 36 37 38 39 37 32 28 27 27 25 22 20 19 18 17 14 10 6 2 1
7 9 12 14 14 13 13 13 13 13 13 15 16 16 16 17 21 30 36 39 39 36 35 36 37 37 38 40 39 32 28 26 26 23 21 19 18 18 17 14 11 7 3 1
9 10 11 12 11 10 10 12 13 14 14 14 14 13 13 14 18 26 32 34 34 32 32 33 34 34 33 35 35 32 28 25 22 19 17 16 15 15 14 11 9 7 4 2
8 9 9 8 7 6 7 10 12 14 13 12 11 10 10 12 16 23 28 28 27 27 27 28 29 29 28 28 28 29 27 23 19 15 14 13 12 11 10 8 7 5 5 4
4 5 6 5 3 3 5 7 10 11 11 11 10 9 9 11 14 20 24 25 24 23 23 25 26 27 26 23 23 24 23 20 17 14 12 11 10 8 8 7 5 4 4 4
2 2 3 3 3 2 3 6 9 10 10 10 9 9 10 11 13 17 20 22 22 20 19 21 23 23 22 20 19 21 21 19 16 13 12 11 9 8 7 7 5 3 2 1
2 2 2 3 3 3 4 6 8 10 10 9 8 9 11 12 13 16 17 17 17 16 16 17 18 18 17 16 17 18 19 18 15 12 11 10 9 8 8 7 5 2 1 0
1 1 2 3 3 4 5 7 8 9 9 8 8 9 11 11 12 13 13 12 12 13 14 15 15 14 13 14 14 15 15 15 13 11 10 9 7 7 7 7 6 3 1 0
0 1 2 3 4 5 6 8 8 8 8 8 8 8 9 9 9 10 10 10 11 12 13 14 13 13 13 13 13 13 12 11 10 9 8 7 6 5 6 6 6 4 1 0
0 1 3 5 6 6 6 7 7 7 6 6 7 8 7 7 7 7 8 9 10 11 11 11 11 10 11 12 12 10 9 8 7 7 7 6 5 6 6 6 5 3 1 0
1 3 6 7 8 7 6 6 6 6 5 5 6 7 7 7 6 6 6 7 8 9 9 7 6 7 8 9 8 6 4 4 5 6 6 6 5 5 5 5 3 2 0 0
2 4 7 7 6 5 4 4 5 6 6 6 6 6 6 5 5 5 5 6 7 8 8 5 3 3 5 6 4 2 1 1 2 4 5 4 3 3 3 2 1 1 0 0
1 3 4 4 4 4 3 4 5 6 6 6 5 4 4 4 4 5 6 6 7 8 7 5 3 2 3 3 2 1 0 0 0 2 2 2 1 1 1 0 0 0 0 0
0 1 3 3 3 3 3 4 5 6 6 5 4 4 3 4 5 6 6 6 7 7 6 5 3 3 3 3 2 2 1 0 0 0 1 0 0 0 0 0 0 0 0 0

GEFSNGP_con_probscp_276.txt.gz
Probability
0 0 0 0 1 0 0 0 0 0 0 0 0 0 0 1 3 4 5 5 5 6 6 6 4 3 3 4 8 13 14 13 11 9 8 7 6 5 4 3 4 6 6 6
0 0 0 1 1 1 0 0 0 0 0 0 1 1 0 2 5 7 8 8 6 6 6 6 4 3 3 5 8 12 13 12 9 8 8 8 6 5 4 4 5 6 7 7
0 0 0 1 2 1 0 0 0 0 0 2 3 3 2 4 8 11 11 10 8 7 8 8 6 4 5 7 9 12 13 11 9 8 9 9 7 6 6 6 7 8 9 9
0 0 0 0 1 1 0 0 0 0 2 4 5 5 5 6 9 11 11 10 10 9 10 11 8 7 8 11 13 14 14 12 10 9 10 10 8 7 8 8 9 9 10 11
0 0 0 0 0 0 0 0 0 2 5 7 6 6 6 6 7 10 11 11 10 10 11 12 11 10 12 15 16 16 15 13 11 10 10 10 9 8 9 10 10 10 10 11
0 0 0 0 0 0 0 0 2 5 7 7 5 4 5 6 7 9 10 10 10 9 10 11 11 12 13 15 16 17 16 14 11 9 10 9 9 8 9 10 10 10 10 11
0 0 0 0 0 0 0 1 3 7 8 6 4 3 5 7 8 7 7 8 10 10 10 10 11 13 14 15 16 18 18 15 11 10 9 9 8 8 9 9 9 9 10 11
0 0 0 0 0 0 0 1 4 8 7 5 5 5 5 7 8 8 8 9 11 12 12 12 13 14 16 16 16 18 18 15 12 11 10 9 8 8 9 8 8 8 9 10
0 0 0 0 0 1 1 2 4 6 7 7 7 6 6 7 9 11 11 12 13 14 15 16 16 16 16 15 16 17 16 14 12 11 9 9 9 9 9 9 9 9 9 9
0 0 0 1 2 3 5 5 5 5 6 6 5 5 7 9 12 13 13 13 14 16 18 19 17 15 14 16 17 17 15 13 12 10 8 8 9 10 9 10 10 11 11 11
0 0 1 2 4 6 9 9 7 5 5 5 4 4 7 11 13 13 12 13 14 17 19 18 15 13 15 18 20 20 16 13 11 9 8 8 8 9 8 8 9 10 10 11
0 0 1 3 5 7 9 9 7 6 6 5 4 4 5 8 10 11 12 12 14 18 20 19 15 13 16 20 23 24 21 17 14 12 11 10 11 10 8 7 7 7 7 9
1 1 2 3 5 7 9 8 7 6 6 4 3 3 4 5 8 10 12 14 16 20 23 22 18 17 19 22 25 26 24 22 21 19 17 16 16 15 13 11 9 7 6 5
3 3 4 4 6 8 9 8 7 6 4 2 2 3 5 7 8 9 11 15 19 23 24 23 22 22 23 25 27 27 25 25 25 25 24 22 20 19 18 16 14 11 7 3
5 5 5 5 6 7 6 6 6 5 3 2 3 6 8 8 8 9 11 16 21 24 24 23 23 24 26 27 27 27 26 25 24 24 24 24 22 20 18 16 15 13 8 4
4 5 6 5 4 3 2 2 3 4 5 4 5 7 8 8 9 11 13 16 19 22 22 21 22 24 25 26 26 24 23 21 19 20 21 22 21 19 16 14 12 11 8 6
2 4 5 4 2 1 1 2 4 5 6 5 5 6 7 8 10 12 13 12 14 18 19 19 19 21 22 22 22 19 16 15 15 17 19 19 18 17 15 13 11 9 7 5
2 3 4 3 1 2 3 3 5 6 6 5 4 5 6 7 9 10 10 10 12 14 15 14 15 16 17 17 15 13 10 9 11 13 15 15 14 14 13 13 12 10 7 4
1 2 3 2 1 1 3 4 4 6 6 5 5 6 6 7 8 9 10 10 11 11 10 9 10 11 12 11 10 7 6 6 7 8 9 9 9 9 10 11 12 12 8 5
0 1 2 2 1 1 2 3 4 5 6 5 6 6 6 6 6 8 9 10 9 8 7 6 7 9 9 9 7 6 5 4 4 4 5 6 7 7 7 8 9 9 8 6
0 0 1 1 1 1 1 2 3 4 5 5 6 5 4 3 4 5 7 8 7 5 4 5 6 8 9 8 7 6 5 5 5 5 6 7 7 8 7 6 6 6 5 5
0 0 0 1 2 1 0 1 1 2 4 4 5 4 2 2 4 5 6 7 6 4 3 4 5 7 8 7 7 7 8 8 7 8 8 8 7 7 6 5 4 4 4 4
0 0 1 2 3 2 1 1 1 2 3 3 3 2 2 4 5 6 6 7 6 4 4 4 4 4 5 7 8 9 10 9 8 9 9 7 6 5 5 4 3 3 3 3
0 1 2 3 3 3 3 2 2 3 3 3 3 3 3 5 6 6 6 6 6 4 3 3 2 1 3 7 9 10 10 9 8 7 6 4 3 2 2 2 2 3 3 3
1 1 3 3 3 3 3 3 3 3 4 4 5 4 4 5 6 6 6 6 4 3 2 2 1 0 3 7 8 9 9 8 7 5 3 2 2 1 0 0 1 1 2 2
2 3 3 3 3 3 3 3 3 4 5 6 6 5 4 5 6 6 6 5 3 2 1 1 1 1 3 6 7 7 7 7 6 5 4 3 3 3 2 1 0 0 1 1
3 3 3 3 3 3 3 3 3 4 5 6 6 6 6 6 6 6 6 5 3 2 1 1 2 2 4 6 6 5 6 6 6 6 5 5 5 5 4 3 1 0 0 0

GEFSNGP_con_probscp_282.txt.gz
Probability
0 0 0 0 0 0 0 0 0 0 1 3 5 6 6 7 9 12 14 15 17 20 20 21 22 21 19 18 18 18 19 20 22 23 23 21 22 23 22 19 20 22 22 21
0 0 0 0 0 0 0 0 0 1 2 4 6 7 8 8 10 12 14 16 18 20 20 20 21 22 24 23 22 22 22 21 22 22 22 22 21 22 22 21 21 23 23 22
0 0 0 0 0 0 0 0 1 3 5 7 7 8 10 11 11 11 12 14 17 18 18 19 19 22 27 29 27 26 25 22 21 21 22 22 22 22 22 23 24 24 24 23
1 1 0 0 1 0 0 0 2 4 6 9 10 10 11 12 12 11 11 14 17 18 18 20 20 21 26 30 30 28 25 22 21 21 21 23 24 24 25 25 26 25 23 23
2 1 0 0 1 1 1 2 4 5 8 11 12 11 11 13 15 15 16 19 19 20 20 22 24 26 29 32 32 30 26 25 25 24 23 25 27 28 28 27 25 23 21 20
1 1 0 0 1 2 3 4 6 7 11 15 15 13 15 17 19 21 24 25 24 23 23 25 27 30 32 34 33 30 27 27 29 29 27 28 31 32 30 27 23 19 17 16
0 0 0 0 1 2 4 6 8 10 14 19 21 21 21 22 23 27 29 29 28 27 27 28 29 30 31 32 30 27 25 28 30 31 30 30 32 33 31 27 23 18 16 15
1 1 0 0 2 4 6 8 11 14 18 22 26 27 25 24 25 27 29 29 31 32 31 30 30 28 28 30 29 25 25 27 30 31 29 28 28 29 28 25 22 19 17 15
3 2 1 1 2 4 5 9 14 18 20 22 24 25 24 24 24 24 24 26 29 32 33 32 31 29 28 30 30 27 26 28 30 31 29 26 24 25 24 22 21 19 17 16
5 5 4 2 3 4 5 8 14 19 20 19 20 21 20 21 23 22 21 23 25 28 31 33 33 31 29 30 33 32 30 29 30 30 29 27 25 23 23 22 21 20 19 19
8 8 8 7 7 8 8 10 15 20 20 19 17 17 18 20 22 22 20 19 21 24 27 30 33 32 30 31 33 34 34 32 30 29 29 28 27 23 21 19 18 17 17 18
12 12 12 12 12 12 12 14 17 20 21 19 17 16 17 19 20 20 20 18 18 21 23 27 32 32 31 32 33 35 36 33 29 28 28 28 27 23 18 14 11 9 8 9
14 15 14 14 14 13 14 15 18 19 20 18 16 16 17 17 17 17 17 17 17 19 21 25 28 31 31 32 34 36 36 34 31 29 28 28 28 24 20 15 10 6 3 2
15 15 16 15 14 14 14 15 17 18 16 14 13 13 14 14 14 14 15 15 17 18 20 21 24 26 29 32 34 35 35 35 34 31 29 28 29 28 25 22 18 12 6 3
14 15 16 16 16 16 15 14 14 13 11 10 9 10 12 13 13 14 15 15 17 19 19 20 21 23 27 31 33 35 35 34 33 32 29 29 30 29 27 25 23 19 13 9
13 14 15 16 17 17 15 13 11 9 7 8 9 9 11 13 14 15 15 16 17 19 20 21 23 25 27 30 34 36 34 31 30 30 30 31 32 29 26 25 24 22 19 16
11 12 13 13 13 13 12 10 8 7 7 8 9 9 10 12 14 14 14 15 16 17 19 22 25 26 27 29 33 35 33 29 28 29 29 31 32 28 23 22 22 21 19 18
9 10 10 9 9 9 8 7 5 6 7 8 8 8 9 11 11 12 13 14 15 17 19 21 22 24 25 26 29 31 30 29 29 29 29 30 29 26 23 22 20 17 16 16
8 8 8 7 6 6 5 4 3 4 5 6 6 6 7 8 8 9 10 12 13 16 18 18 17 19 21 20 22 27 28 27 28 29 28 26 25 25 23 21 18 15 14 13
7 7 7 6 5 4 3 3 2 3 5 6 6 6 6 7 6 6 7 8 10 14 16 15 14 15 16 15 17 23 26 25 25 26 25 22 22 22 20 17 14 12 11 11
6 5 4 3 3 2 2 3 3 4 5 6 7 7 6 6 6 5 5 5 7 11 13 13 12 12 12 11 13 19 23 24 23 22 20 18 17 16 14 13 11 9 9 9
4 3 1 1 1 1 2 3 4 4 5 6 7 6 6 5 5 5 5 4 6 9 11 11 10 9 8 8 11 15 20 23 22 19 16 14 13 12 11 10 10 9 9 8
1 1 0 0 0 1 2 3 4 5 5 6 7 7 5 4 5 5 5 4 5 7 9 9 7 6 5 7 11 16 19 19 19 18 15 12 10 9 8 9 10 10 9 9
0 0 0 0 0 1 1 2 3 4 5 5 7 8 5 3 3 3 3 4 4 6 7 7 4 3 4 8 13 16 17 17 17 17 14 10 7 7 7 8 9 10 10 10
0 0 0 0 0 0 0 1 1 1 2 3 5 6 4 2 2 3 4 5 4 5 6 6 4 3 6 11 13 14 14 14 14 14 12 8 7 7 8 9 10 10 10 10
1 1 1 1 1 1 1 1 0 0 1 2 3 3 3 3 4 5 6 6 5 5 6 6 6 7 9 12 13 13 13 11 10 10 9 8 8 9 9 9 10 9 9 9
2 2 2 2 2 2 2 2 1 1 3 4 3 2 3 4 6 7 7 6 6 6 6 7 7 9 11 12 13 13 12 11 10 9 9 9 10 10 10 10 10 9 8 8

GEFSNGP_con_probscp_288.txt.gz
Probability
0 0 0 0 0 0 0 0 1 3 4 5 9 12 12 13 17 23 29 30 31 34 37 36 35 37 41 41 40 42 42 38 37 38 37 36 37 37 38 37 34 31 29 28
0 0 0 0 0 1 1 1 2 3 4 6 10 14 16 17 20 24 28 29 30 35 39 37 36 38 41 43 43 43 41 39 40 41 40 38 39 40 40 39 36 33 31 29
0 0 0 0 1 2 4 4 4 4 6 8 12 18 22 25 28 29 30 30 31 36 40 38 36 38 42 45 44 42 40 39 41 43 44 44 44 46 47 44 41 38 34 31
0 0 0 0 1 3 5 6 5 6 8 12 17 22 26 31 35 36 36 36 34 35 37 37 37 40 44 45 44 42 41 41 42 45 49 50 50 51 52 48 46 44 39 35
0 0 0 0 1 2 3 5 5 6 11 16 19 23 28 34 40 43 44 42 38 36 37 40 42 44 47 46 45 44 44 44 45 48 51 53 54 54 54 52 50 47 42 38
0 0 0 0 1 2 2 4 6 9 14 18 20 25 31 37 41 45 47 45 42 40 43 47 48 50 50 48 47 48 47 46 46 49 52 54 55 55 54 53 51 47 42 38
1 0 0 1 2 4 8 10 11 13 16 20 25 30 35 39 41 42 43 43 42 45 49 52 52 53 52 50 50 49 47 46 45 47 49 52 54 55 55 52 49 45 41 37
5 4 5 6 7 10 16 17 15 16 19 24 29 33 35 37 38 39 40 40 41 46 51 53 53 53 54 54 51 47 45 45 45 44 44 47 50 51 52 49 44 39 36 33
11 10 11 12 12 15 18 17 15 17 21 24 28 31 32 34 34 34 36 38 41 46 49 49 49 50 54 56 53 47 44 46 48 45 43 43 44 44 45 43 38 33 30 29
14 12 11 12 12 13 14 14 14 18 22 25 28 30 30 32 31 30 31 34 38 42 43 42 42 46 53 57 55 49 47 49 51 48 45 43 40 38 38 38 36 33 30 29
13 11 10 10 10 10 11 13 16 20 23 24 27 30 31 31 31 30 29 30 33 35 36 37 38 42 49 55 56 52 50 51 50 46 45 44 38 32 30 32 32 29 27 28
14 15 14 12 11 9 10 14 18 21 22 22 24 28 31 31 31 30 30 29 29 31 32 33 35 39 43 48 52 53 50 47 45 43 43 41 35 27 21 20 17 14 15 17
17 17 16 14 13 11 13 16 18 19 20 22 23 26 28 28 28 27 27 26 25 27 28 28 30 33 35 39 45 48 45 38 36 37 38 36 32 27 22 16 10 6 5 5
17 16 15 15 15 14 14 16 17 18 21 23 24 25 25 26 26 26 24 21 20 22 23 23 24 27 28 32 38 41 38 31 29 30 32 32 29 28 27 23 17 11 5 1
14 14 14 14 15 14 14 15 16 18 20 21 21 21 22 23 24 24 21 18 17 19 21 22 22 23 25 27 33 37 35 30 27 26 27 28 26 26 27 25 21 17 11 5
13 12 12 13 13 14 14 15 16 17 16 15 16 18 20 21 20 19 18 17 17 18 21 25 24 23 23 25 30 35 34 31 29 28 26 25 25 26 27 25 22 20 16 12
11 11 12 12 12 13 14 15 15 15 14 13 14 16 18 19 18 17 17 18 18 19 21 25 25 22 21 23 26 30 30 28 28 31 29 26 28 29 29 26 23 21 19 17
10 10 11 11 12 13 13 13 14 14 14 13 13 14 14 15 16 17 16 16 17 17 18 19 19 18 19 21 24 25 26 25 26 30 30 28 30 33 31 28 23 20 19 17
7 8 10 10 12 13 13 12 12 13 14 12 11 11 11 11 13 14 13 12 12 13 13 13 14 17 19 22 24 25 24 24 25 28 28 28 30 33 32 29 22 18 16 15
6 7 9 11 12 13 13 11 10 11 11 9 7 7 9 9 9 9 9 7 8 9 9 10 13 16 19 22 24 25 25 24 24 25 26 26 27 30 30 26 18 14 14 14
9 9 11 14 14 13 10 8 6 7 7 6 3 4 7 7 5 5 5 5 5 7 6 7 10 14 16 18 21 24 24 23 23 25 25 25 25 26 26 20 14 12 13 14
11 10 11 13 13 10 7 4 3 3 4 3 1 2 4 5 3 3 4 4 3 4 5 5 7 9 11 14 18 21 22 22 23 25 25 24 23 23 22 17 13 12 13 14
8 8 7 8 8 7 4 1 1 2 2 1 1 2 3 3 3 3 3 3 3 3 5 6 6 7 9 14 17 17 18 20 22 23 22 21 21 21 18 15 12 12 12 12
5 4 4 4 4 4 3 2 2 3 2 2 1 2 2 2 4 4 4 4 5 5 6 6 6 7 9 14 16 15 17 20 21 20 19 19 20 18 16 12 10 10 10 10
3 3 3 3 3 3 4 3 3 2 2 2 2 3 3 3 5 6 6 5 5 6 5 5 6 8 11 14 16 16 17 19 19 18 16 17 18 17 14 11 9 9 9 10
3 3 3 3 2 2 2 1 1 1 1 2 4 5 5 4 5 6 6 5 4 3 3 3 5 8 11 13 13 13 13 14 15 14 14 14 15 15 13 12 11 10 9 9
3 3 3 2 1 1 0 0 0 1 2 3 5 6 5 4 4 4 4 2 1 1 1 2 4 8 10 11 10 10 9 9 10 11 11 11 12 13 13 12 12 11 9 8

GEFSNGP_con_probscp_294.txt.gz
Probability
0 0 0 0 0 0 0 0 1 1 1 1 2 5 9 12 16 17 16 14 15 14 12 10 8 9 12 15 18 23 25 24 24 22 18 14 12 13 13 12 10 9 11 12
0 0 0 0 0 0 0 1 2 2 1 3 6 11 13 16 18 18 15 14 13 14 13 12 11 10 12 14 17 21 25 26 26 24 19 15 13 14 15 13 11 11 12 12
0 0 0 0 0 0 1 3 4 3 3 7 12 16 17 19 20 18 14 12 12 13 14 14 14 13 13 15 16 18 23 27 28 26 22 18 15 15 15 15 13 12 12 12
0 0 0 0 0 0 1 4 5 5 6 11 16 17 18 18 19 18 15 12 12 13 14 14 15 16 16 17 17 18 21 27 30 29 26 22 18 15 15 16 16 15 13 12
0 0 0 0 0 0 0 2 5 7 8 12 16 18 18 18 19 20 19 16 15 16 17 16 17 18 18 17 18 19 22 27 31 32 30 26 22 18 18 20 20 17 14 12
0 0 0 1 1 0 0 1 4 6 7 11 15 18 19 20 21 22 22 21 20 21 22 21 20 19 18 18 18 20 23 27 32 34 32 29 26 25 24 24 22 18 14 11
0 0 1 2 2 1 1 2 3 4 5 9 13 17 21 21 21 21 21 22 22 23 24 24 23 21 19 19 19 21 24 28 33 35 34 31 30 30 29 27 25 20 14 11
0 0 1 2 2 2 2 3 4 3 4 8 13 18 21 21 19 17 17 17 19 21 21 22 23 22 19 19 19 20 22 26 32 35 35 34 34 33 30 28 26 22 16 12
1 1 0 1 1 2 1 2 3 3 5 9 14 18 19 18 15 13 12 12 14 16 17 18 20 19 17 17 17 18 20 22 25 30 33 33 33 32 30 29 27 23 18 14
3 3 2 1 1 1 2 3 4 6 8 12 15 15 14 12 10 10 10 10 10 11 12 14 16 16 16 16 15 16 17 18 20 24 28 31 30 28 27 27 26 23 18 15
6 6 4 4 3 3 5 6 7 10 13 15 15 14 12 10 8 9 11 11 11 10 10 11 12 14 15 15 13 13 14 15 16 19 25 27 26 22 20 20 21 18 15 14
7 7 7 7 6 6 7 8 9 12 15 16 16 15 13 12 10 10 11 13 13 12 10 9 10 12 14 14 12 11 12 13 14 17 23 24 20 14 11 11 11 10 9 9
5 6 8 9 9 9 9 9 11 14 16 17 17 15 14 13 12 10 9 11 12 12 10 7 7 9 11 11 11 10 10 11 13 17 22 22 18 13 9 6 4 2 2 2
4 6 8 10 11 11 12 12 14 16 16 16 15 14 13 13 12 9 7 8 10 10 9 7 6 7 9 10 10 10 11 11 12 17 22 24 22 18 13 9 4 1 0 0
5 7 8 9 11 13 14 15 16 16 13 11 10 10 10 9 9 8 7 8 9 10 10 9 8 8 9 10 10 10 10 11 12 16 21 24 24 22 19 15 9 3 1 0
5 6 6 8 10 12 14 16 16 13 9 6 5 6 6 5 5 6 7 9 9 9 10 9 8 9 10 10 10 9 8 9 10 12 17 22 23 22 21 18 13 8 4 2
3 4 5 7 9 11 13 13 11 9 6 4 4 5 4 2 2 5 7 8 8 8 7 7 6 7 9 9 9 8 7 6 7 10 14 19 21 21 21 20 17 12 7 4
2 3 4 5 6 7 9 8 7 5 4 4 5 5 3 1 1 4 5 6 6 6 5 4 4 6 7 8 8 7 6 5 5 7 11 16 19 21 21 20 18 14 10 7
1 2 3 2 3 3 4 4 4 3 3 3 3 3 2 2 2 3 3 3 3 3 3 3 4 6 6 6 7 7 6 4 4 4 7 12 17 19 21 20 17 15 11 9
3 3 2 2 2 2 2 3 3 3 2 1 1 2 2 3 3 3 2 1 1 1 1 2 3 5 5 5 5 6 5 4 4 4 7 11 14 17 19 19 17 14 12 11
4 4 4 4 3 1 1 2 3 2 1 0 0 1 2 3 3 2 1 0 0 0 0 1 1 2 2 3 4 6 6 5 5 4 7 10 13 14 16 17 16 14 13 12
3 3 3 3 2 2 2 2 1 1 0 0 0 1 1 1 2 2 2 1 0 0 0 0 0 1 1 2 4 6 6 6 5 4 6 9 12 12 12 14 15 15 14 12
1 1 1 1 2 2 2 1 0 0 0 0 0 0 0 0 1 2 2 1 0 0 0 0 0 0 1 2 3 4 5 6 5 4 5 8 10 11 11 12 13 14 12 11
1 1 1 1 1 1 1 0 0 0 0 0 0 0 0 0 0 1 1 0 0 0 0 0 0 0 1 1 1 2 3 4 5 4 4 7 9 11 10 10 10 10 9 8
2 2 2 1 1 0 0 0 0 0 0 0 1 1 0 0 0 0 0 0 0 0 0 0 0 0 0 0 0 1 3 4 4 3 4 6 9 9 9 8 7 7 6 5
2 2 1 0 0 0 0 0 0 0 0 0 1 1 0 0 0 0 0 0 0 0 0 0 0 0 0 0 0 2 3 4 3 2 3 5 6 7 7 6 6 5 4 3
1 1 0 0 0 0 0 0 0 0 0 0 1 1 0 0 0 0 0 0 0 0 0 0 0 0 0 0 0 1 3 3 2 1 1 2 4 5 6 5 4 4 3 2

GEFSNGP_con_probscp_300.txt.gz
Probability
0 0 1 2 2 2 1 1 0 0 0 0 0 1 3 5 8 10 9 10 12 12 11 9 7 6 5 5 6 9 11 12 13 13 14 13 10 8 9 9 8 7 7 8
0 0 0 1 2 2 2 2 1 0 0 1 1 2 4 7 10 11 11 11 11 11 9 8 7 5 4 4 5 8 11 13 13 13 14 15 14 12 11 11 9 8 7 7
0 0 0 0 1 2 3 3 2 1 1 2 2 3 5 8 10 12 13 12 11 9 7 7 6 5 4 4 5 7 10 13 13 13 15 17 17 15 14 13 12 10 8 7
0 0 0 0 0 1 1 2 3 2 2 3 3 4 6 7 8 10 12 13 11 10 8 6 6 6 6 5 5 7 10 13 15 15 17 17 17 16 15 16 15 12 10 9
0 0 0 0 0 0 0 1 3 3 2 3 5 6 7 7 8 9 11 12 12 11 8 6 6 8 9 9 9 10 12 14 16 17 17 17 17 17 18 19 18 15 12 11
0 0 0 0 0 0 0 1 2 2 2 4 6 8 7 7 8 10 11 12 13 11 8 6 6 8 11 13 13 13 13 14 16 16 16 16 17 19 21 22 20 16 13 11
0 0 0 0 0 0 0 0 1 1 2 4 5 6 7 8 9 12 15 15 14 12 9 8 7 8 10 11 11 11 11 13 16 17 17 17 18 20 21 22 22 17 13 11
0 0 0 0 0 0 0 0 0 0 1 2 3 5 7 8 10 14 17 18 17 14 10 7 7 8 7 7 8 9 10 12 15 18 19 19 20 20 20 22 22 19 15 13
0 0 0 0 1 1 1 0 0 1 1 2 4 5 8 9 9 12 16 18 17 13 9 6 6 7 7 7 8 9 10 11 14 16 17 18 20 20 19 20 21 20 17 15
0 0 0 1 2 2 2 1 2 3 4 5 5 7 8 9 9 10 11 12 12 11 9 8 7 7 6 7 7 8 9 10 12 13 14 16 18 19 19 19 20 20 18 16
0 0 1 2 4 4 3 4 4 6 7 8 8 8 9 10 10 10 9 9 9 10 11 12 11 8 6 5 4 6 7 8 10 12 13 15 17 19 17 17 16 16 17 17
0 1 2 3 4 5 4 5 6 8 9 9 8 9 9 10 10 10 9 8 7 8 11 13 12 8 5 3 4 6 7 8 9 11 12 14 18 18 15 13 11 10 11 12
1 2 3 3 4 5 6 5 6 7 7 8 8 9 9 9 8 8 7 7 5 5 8 9 8 6 4 4 5 7 8 9 9 10 11 14 17 18 16 12 9 6 4 4
2 3 3 4 5 6 7 7 6 5 5 6 8 9 9 8 7 6 5 3 3 4 6 7 6 4 3 4 5 7 8 9 10 11 12 13 15 17 16 14 11 9 5 2
4 4 5 6 6 6 6 6 6 5 4 4 6 8 8 8 7 5 3 2 2 4 6 6 5 5 4 4 5 7 8 9 9 10 12 13 14 15 15 12 12 11 8 5
6 5 5 6 6 6 5 5 5 4 3 2 3 4 6 5 4 4 3 3 3 4 5 4 4 4 5 5 6 6 7 8 9 10 11 13 14 15 13 11 10 10 9 8
5 4 4 4 4 5 4 3 3 3 1 1 1 2 3 2 1 2 3 3 3 3 4 3 3 3 4 4 5 6 6 6 8 9 10 11 13 14 13 11 11 10 9 8
2 2 2 1 2 2 2 1 1 1 0 0 0 1 1 0 0 1 3 3 3 3 3 3 3 3 3 3 4 4 4 5 7 9 9 9 10 11 11 11 11 11 10 8
2 2 2 1 1 0 0 0 0 0 0 0 0 0 0 0 0 1 2 3 3 3 3 3 3 3 3 3 3 3 4 5 7 7 7 6 6 7 9 10 11 11 10 9
2 1 1 1 0 0 0 0 0 0 0 0 0 0 0 0 0 1 2 3 2 3 3 3 3 3 3 3 3 3 4 6 6 6 6 5 4 4 5 7 9 10 10 9
1 0 0 0 0 0 0 0 0 0 0 0 0 0 0 0 0 1 2 1 1 1 2 2 2 3 3 3 3 3 4 6 6 6 6 6 5 4 4 4 5 7 8 9
0 0 0 0 0 0 0 0 0 0 0 0 0 0 0 0 0 1 1 0 0 0 1 1 1 1 2 2 3 3 4 5 6 6 6 6 5 3 2 2 2 2 4 5
0 0 0 0 0 0 0 0 0 0 0 0 0 0 0 0 0 0 0 0 0 0 0 0 0 0 1 1 1 2 3 3 5 5 6 5 4 2 1 1 1 1 2 2
0 0 0 0 0 0 0 0 0 0 0 0 0 0 0 0 0 0 0 0 0 0 0 0 0 0 0 0 0 1 1 1 2 3 4 4 3 1 0 1 2 2 2 2
0 0 0 0 0 0 0 0 0 0 0 0 0 0 0 0 0 0 0 0 0 0 0 0 0 0 0 0 0 0 0 0 0 1 3 3 2 1 0 1 2 3 3 3
0 0 0 0 0 0 0 0 0 0 0 0 0 0 0 0 0 0 0 0 0 0 0 0 0 0 0 0 0 0 0 0 0 1 2 2 1 0 1 1 1 1 2 3
0 0 0 0 0 0 0 0 0 0 0 0 0 0 0 0 0 0 0 0 0 0 0 0 0 0 0 0 0 0 0 0 0 1 2 1 0 1 1 1 0 0 1 3

GEFSNGP_con_probscp_306.txt.gz
Probability
0 0 0 0 1 2 2 1 1 1 2 4 5 6 7 9 10 12 13 14 18 23 28 30 32 33 30 25 21 19 18 18 19 20 21 21 20 18 18 18 18 17 17 18
0 0 0 0 1 2 2 2 1 1 2 4 4 5 6 8 11 13 14 15 18 25 29 29 31 33 30 26 24 22 21 22 22 21 21 22 21 20 20 21 22 21 19 19
0 0 0 0 0 1 1 1 1 1 2 3 3 4 6 8 12 14 16 18 21 26 30 31 31 30 28 26 27 27 25 25 24 21 21 22 22 21 22 26 29 27 23 22
0 0 0 0 0 0 0 0 1 1 3 4 4 5 7 9 13 16 18 21 23 26 31 34 33 30 28 27 28 30 30 29 26 23 23 23 23 22 24 29 33 32 29 27
0 0 0 0 0 0 0 0 1 3 5 6 6 7 9 12 14 16 18 22 24 25 29 35 35 34 32 30 29 30 31 31 30 29 28 27 25 24 25 30 34 36 33 30
0 0 0 0 0 0 0 0 1 4 7 8 7 8 10 13 15 15 19 23 25 25 28 33 35 36 34 30 29 29 29 30 31 31 32 31 29 27 26 28 32 35 33 30
0 0 0 0 0 1 1 0 2 4 7 7 7 8 10 14 16 18 21 25 28 29 30 33 34 33 30 26 25 26 27 28 30 32 32 32 31 30 28 28 30 33 32 30
0 0 0 1 1 2 2 1 3 4 6 6 6 7 9 13 16 19 22 25 29 32 33 33 32 30 26 23 22 22 23 25 28 31 33 33 33 33 33 31 30 30 30 30
1 1 2 2 3 3 3 3 4 5 6 7 6 7 8 10 12 15 19 24 27 30 32 32 30 28 25 23 21 19 19 21 24 29 31 32 33 34 33 31 28 27 28 30
3 3 2 3 3 4 4 4 6 7 8 7 7 7 9 10 11 14 19 24 26 27 30 31 30 27 25 23 21 19 17 18 21 23 25 26 28 28 28 26 24 24 25 27
5 4 3 3 4 4 5 5 6 7 7 6 6 6 8 12 15 18 21 23 24 24 26 28 28 26 25 23 21 19 17 17 17 17 19 21 22 22 21 19 17 16 18 20
5 4 4 5 5 5 5 6 6 7 6 6 5 5 8 12 15 17 19 19 20 20 21 21 23 22 22 22 22 20 17 15 15 16 17 19 19 18 16 12 8 6 8 10
6 5 5 6 6 5 4 5 6 7 8 8 7 6 8 11 12 13 14 15 16 15 15 16 17 17 18 20 21 19 15 12 14 16 16 16 17 17 16 12 7 4 2 2
6 6 5 6 6 6 5 4 4 7 10 11 9 8 10 11 11 10 11 13 13 12 12 12 12 13 15 16 16 15 11 10 12 14 14 13 14 16 17 16 12 9 5 3
5 5 6 6 6 6 6 5 4 6 10 11 10 10 11 12 11 10 10 11 9 8 8 8 7 8 10 11 11 11 9 9 10 11 12 12 13 15 16 17 16 14 11 8
4 5 6 6 6 6 6 6 5 5 7 9 10 10 10 11 11 9 9 8 6 5 5 5 4 5 6 8 9 10 8 8 9 10 10 11 12 13 15 17 17 16 14 12
6 6 6 6 6 6 6 6 6 6 6 7 8 8 8 10 9 8 7 6 5 3 4 5 4 4 5 6 8 8 7 7 8 9 10 10 11 12 14 16 16 16 15 15
6 6 6 6 6 6 6 6 6 6 6 6 5 5 7 9 8 7 6 6 5 4 4 4 5 5 5 6 7 6 5 5 6 9 9 9 10 11 13 14 15 15 14 14
4 4 4 5 6 6 6 6 6 6 5 5 3 3 5 7 7 6 6 6 6 5 4 4 4 4 4 5 6 5 3 3 5 7 8 8 8 10 11 12 12 12 11 10
1 1 1 3 5 6 5 5 4 3 3 2 1 1 2 3 4 4 5 6 5 4 3 3 4 4 3 4 4 4 3 3 3 4 5 5 6 6 7 8 8 7 6 5
0 1 1 2 3 4 4 3 2 1 1 0 0 0 0 1 2 3 4 4 3 2 1 1 2 3 2 3 3 3 2 2 2 2 3 3 3 3 3 4 4 4 3 3
2 2 2 3 3 3 3 3 2 2 2 1 1 0 0 1 1 2 2 2 2 1 0 1 1 1 1 1 2 1 1 1 1 1 1 1 1 1 1 1 3 3 3 2
4 3 3 3 3 3 3 3 3 3 3 3 2 1 0 0 0 1 1 1 1 0 0 1 0 0 0 0 0 0 0 0 0 0 0 0 0 0 0 1 2 2 2 1
5 4 3 3 3 3 3 2 2 2 2 3 2 1 0 0 0 0 0 0 0 0 0 0 0 0 0 0 0 0 0 0 0 0 0 0 0 0 0 0 1 1 1 1
8 5 3 3 3 2 1 1 1 1 1 1 1 0 0 0 0 0 0 0 0 0 0 0 0 0 0 0 0 0 0 0 0 0 0 0 0 0 0 0 0 0 0 0
7 5 4 3 2 1 0 0 0 0 0 0 0 0 0 0 0 0 0 0 0 0 0 0 0 0 0 0 0 0 0 0 0 0 0 0 0 0 0 0 0 0 0 0
5 4 4 3 2 1 0 0 0 0 0 0 0 0 0 0 0 0 0 0 0 0 0 0 0 0 0 0 0 0 0 0 0 0 0 0 0 0 0 0 0 0 0 0

GEFSNGP_con_probscp_312.txt.gz
Probability
0 0 0 0 0 0 0 1 1 2 4 7 8 10 14 18 20 23 28 30 32 37 41 41 41 43 42 38 36 35 34 33 34 38 39 36 34 34 35 34 32 33 34 32
0 0 0 0 0 0 1 2 3 3 5 8 9 11 14 19 22 23 26 28 30 34 39 42 42 44 43 40 37 36 36 36 36 38 39 39 39 39 39 35 33 34 35 35
0 0 0 0 0 0 1 3 4 4 6 8 10 12 14 18 21 23 24 26 27 29 35 40 43 44 44 42 39 39 39 39 39 40 42 42 42 43 42 39 37 37 37 37
1 0 1 1 1 0 1 2 3 5 6 8 11 14 15 16 18 21 24 25 26 27 30 37 42 43 43 42 42 41 41 42 42 44 45 45 44 44 43 42 42 43 42 40
1 0 1 2 1 1 1 2 4 7 8 10 12 14 16 17 18 20 24 26 28 28 29 34 40 44 44 43 43 43 43 44 44 44 45 46 46 45 44 43 44 46 45 43
1 0 1 2 1 1 2 5 8 9 10 11 12 13 16 18 19 22 26 28 30 31 34 38 43 45 45 44 44 44 43 44 42 41 42 44 45 45 45 44 45 45 43 41
2 2 2 4 4 6 9 13 13 11 12 13 14 16 17 20 24 27 28 31 33 35 40 46 49 47 46 46 46 44 42 42 42 40 39 40 43 46 47 47 45 42 38 37
4 5 6 9 11 15 19 19 16 14 14 15 16 17 19 25 29 29 29 31 32 36 44 49 51 49 47 48 47 44 42 41 41 40 36 36 41 46 47 47 45 40 37 35
9 9 12 15 17 19 19 18 17 16 17 17 15 16 22 29 32 30 30 30 30 35 42 46 47 47 46 45 46 44 42 42 41 37 34 34 38 40 40 40 39 37 35 34
12 12 13 14 15 15 15 15 15 15 17 17 14 17 25 32 33 30 29 28 29 32 37 40 42 43 42 42 43 43 40 39 37 32 29 30 33 32 30 29 28 28 29 30
13 12 10 9 10 11 12 12 12 13 15 16 16 19 27 32 31 27 25 27 29 31 33 34 38 42 41 41 42 40 36 32 30 27 25 26 26 23 21 19 18 18 20 23
11 10 9 7 7 8 9 10 10 11 13 14 16 19 25 28 28 26 25 27 29 29 28 29 34 40 41 40 41 39 33 28 25 24 24 24 21 18 14 11 10 10 11 13
7 7 7 6 5 6 7 8 8 9 9 12 15 18 22 25 25 25 25 26 26 25 25 26 31 37 40 39 40 39 32 24 22 23 21 19 18 16 13 9 8 8 7 6
3 3 3 3 3 3 4 5 6 6 7 11 16 19 21 22 22 21 21 20 20 20 21 23 28 34 38 37 36 33 25 18 18 19 17 15 14 13 13 12 13 13 9 5
1 1 1 2 1 1 3 4 5 6 7 11 16 20 21 21 19 17 17 17 16 16 18 22 27 32 35 33 29 24 17 14 14 15 14 12 11 11 11 12 15 18 14 8
0 0 1 2 1 2 4 5 6 6 7 10 14 19 20 20 19 17 16 17 17 18 21 25 26 28 30 29 24 17 13 10 10 10 11 10 9 8 9 11 13 15 15 11
0 0 1 2 3 3 5 6 6 7 7 8 11 16 18 18 19 19 18 18 20 22 25 26 25 24 25 25 20 14 10 9 8 8 9 8 8 8 9 9 9 10 11 10
0 0 1 2 3 4 6 6 6 7 8 7 9 13 17 19 21 22 21 19 19 21 23 23 20 20 21 22 19 14 10 8 8 10 11 10 9 8 9 10 8 8 8 8
0 0 0 1 2 4 6 6 6 7 8 8 9 12 16 19 21 21 20 18 16 17 20 19 16 17 19 20 18 14 8 5 6 9 10 9 8 8 9 9 9 8 8 8
1 0 0 0 2 4 6 6 6 7 7 7 8 10 13 15 17 17 15 14 15 16 16 14 13 15 17 15 12 9 6 3 3 5 6 5 5 7 8 8 8 7 6 7
1 1 1 1 2 4 5 5 6 6 5 5 5 6 9 11 12 14 13 12 14 15 12 10 10 11 10 8 6 5 4 3 3 3 3 3 4 4 6 7 6 4 3 3
2 2 2 3 3 3 3 4 5 5 4 3 3 4 6 9 9 11 11 10 8 8 6 5 5 5 4 3 4 4 3 2 3 3 3 3 3 4 4 4 4 2 1 1
3 3 3 3 3 3 3 4 4 4 4 4 4 4 5 6 6 6 5 4 3 2 2 3 3 2 2 3 4 4 3 3 3 3 3 3 3 3 3 2 1 1 0 0
2 2 2 3 4 6 6 5 4 3 4 5 6 6 6 5 4 2 1 0 0 0 0 1 1 1 1 4 4 4 3 4 3 3 2 2 1 1 2 2 1 1 1 1
2 1 2 4 6 7 7 6 4 3 4 4 5 6 6 4 2 1 0 0 0 0 0 0 0 0 2 4 4 3 3 3 2 1 1 1 0 1 2 3 2 2 2 2
2 3 5 6 6 6 5 4 4 3 3 3 3 4 4 3 1 0 0 0 0 1 1 2 1 1 2 2 2 2 2 2 1 0 0 0 0 1 3 3 3 3 3 3
3 5 7 6 5 5 4 3 3 3 3 2 2 3 3 1 0 0 0 0 1 2 3 4 2 1 1 1 1 1 1 0 0 0 0 0 1 2 3 3 4 4 4 3